THOR ABLESTAR DEB, 148

Orbit data source: Space-Track

THOR ABLESTAR DEB, 148 is space debris in LEO originally from a launch on Thu, 29 Jun 1961 UTC launched from the Air Force Eastern Test Range (AFETR). Debris objects in space refer to the collection of defunct objects orbiting the Earth. Examples of debris include non-operational satellites, rocket bodies, and fragments generated from explosions, collisions, or faulty payload assembly.

Loading next visibility...
Identifier
148, 1961-015AJ
Orbit
LEO
Country
Flag of USUS
Related business
Manufacturer
Unknown
Mission
Spacecraft
Bus & Motor
Unknown
Mass
Unknown
Launch date (UTC)
1961-06-29 (64 years ago)
Launch vehicle
Unknown
Launch site
Air Force Eastern Test Range (AFETR)
Object type
Payload
Rocket body
Debris
Shape & HBR
Unknown
Radar Cross Section
Medium (>0.1 m² and <1 m²)

Expand to show TLE details & history
Last TLE update: 5 hours ago

TLE from 5 hours ago
0 THOR ABLESTAR DEB
1 00148U 61015AJ  25245.92156991  .00001474  00000-0  81225-3 0  9993
2 00148  65.7726 149.3817 0132752 111.3416 250.1893 14.10155148718462
Epoch: 2025-09-02T22:07Z
TLE epoch observation values (Epoch: 2025-09-02T22:07:03.64Z)
Latitude
-0.00002°
Longitude
-164.68934°
Altitude
894.542 km
Speed
7.388 km/s
True Right ascension
09h 57m 31s
True Declination
0° 00' 00"
Sunlit
Object was in daylight at epoch
Visualization orbit readout
Latitude
Unknown
Longitude
Unknown
Altitude
Unknown
Speed
Unknown
Apparent Right ascension
Unknown
Apparent Declination
Unknown
Sunlit
N/A
Visualization observer readout
Local Sidereal Time
19:24:08
Azimuth
Unknown
Elevation
Unknown
Doppler factor
Unknown
Orbital elements
Apogee altitude
953.392 km
Perigee altitude
761.287 km
Semi-major axis
7,235.476 km
Eccentricity
0.01328
Inclination
65.7726°
RAAN
149.3817°
Arg. of periapsis
111.3416°
True anomaly
248.76626°
Mean anomaly
250.1893°
Eccentric anomaly
249.47696°
Mean motion
3.52649 °/min
Orbital period
102.08 mins
BSTAR
0.00081225
Loading maneuver chart data...
Computing Atmospheric mass density...

Documentation

Showing up to 5 results
|